CZ-6A DEB, 55887

Orbit data source: Space-Track

CZ-6A DEB, 55887 is space debris in SSO originally from a launch on Fri, 11 Nov 2022 UTC launched from the Taiyaun Space Center, China (TSC). Debris objects in space refer to the collection of defunct objects orbiting the Earth. Examples of debris include non-operational satellites, rocket bodies, and fragments generated from explosions, collisions, or faulty payload assembly.

Loading next visibility...
Identifier
55887, 2022-151AAK
Orbit
SSO
Country
Flag of CNCN / PRC
Related business
Manufacturer
SAST
Mission
Spacecraft
Bus & Motor
Unknown
Mass
Unknown
Launch date (UTC)
2022-11-11 (4 years ago)
Launch vehicle
Unknown
Launch site
Taiyaun Space Center, China (TSC)
Object type
Payload
Rocket body
Debris
Shape & HBR
Unknown shape, 0.1 m
Radar Cross Section
Medium (>0.1 m² and <1 m²)

Expand to show TLE details & history
Last TLE update: 2 days ago

TLE from 2 days ago
0 CZ-6A DEB
1 55887U 22151AAK 26170.99540375  .00003200  00000-0  12030-2 0  9995
2 55887  98.7866 193.6280 0048105 309.9064  49.7895 14.31625173181541
Epoch: 2026-06-19T23:53Z
TLE epoch observation values (Epoch: 2026-06-19T23:53:22.884Z)
Latitude
-0.00003°
Longitude
-72.93372°
Altitude
767.074 km
Speed
7.482 km/s
True Right ascension
12h 54m 30s
True Declination
0° 00' 00"
Sunlit
Object was in daylight at epoch
Visualization orbit readout
Latitude
Unknown
Longitude
Unknown
Altitude
Unknown
Speed
Unknown
Apparent Right ascension
Unknown
Apparent Declination
Unknown
Sunlit
N/A
Visualization observer readout
Local Sidereal Time
21:54:00
Azimuth
Unknown
Elevation
Unknown
Doppler factor
Unknown
Orbital elements
Apogee altitude
817.901 km
Perigee altitude
749 km
Semi-major axis
7,161.587 km
Eccentricity
0.00481
Inclination
98.7866°
RAAN
193.628°
Arg. of periapsis
309.9064°
True anomaly
50.21211°
Mean anomaly
49.7895°
Eccentric anomaly
50.00064°
Mean motion
3.58121 °/min
Orbital period
100.52 mins
BSTAR
0.001203
Loading maneuver chart data...
Computing Atmospheric mass density...
Loading historical data...
Loading historical data...
Loading historical data...
Loading historical data...
Loading historical data...
Loading historical data...
Loading historical data...

Documentation

Showing up to 5 results
|